Total_Precipitation_Accumulation
1.07 1.09 1.18 1.34 1.41 1.41 1.51 1.47 1.37 1.29 1.26 1.20 1.15 1.17 1.17 1.14 1.23 1.41 1.56 1.74 1.87 1.92 1.89 1.91 1.91 1.99 2.03 1.91 1.96 2.01 2.17 2.35 2.10 1.68 1.74 1.90 1.84 1.65 1.51 1.40 1.29 1.26 1.21
1.03 1.12 1.18 1.28 1.32 1.27 1.30 1.37 1.41 1.32 1.25 1.25 1.27 1.23 1.12 1.10 1.20 1.35 1.52 1.71 1.87 1.97 2.04 2.08 1.92 1.97 2.08 2.02 2.01 2.02 2.10 2.33 2.28 2.15 2.10 2.17 2.11 1.89 1.67 1.45 1.18 1.05 1.10
1.13 1.14 1.11 1.16 1.11 1.11 1.15 1.20 1.28 1.31 1.33 1.35 1.37 1.32 1.29 1.35 1.47 1.54 1.59 1.71 1.86 1.95 2.02 1.99 1.96 2.06 1.99 2.02 2.06 2.05 2.03 2.03 2.13 2.13 2.07 2.18 2.13 1.89 1.68 1.43 1.22 1.21 1.12
0.99 1.00 1.01 1.02 1.04 1.11 1.16 1.17 1.19 1.19 1.27 1.32 1.33 1.40 1.45 1.52 1.57 1.57 1.55 1.58 1.67 1.77 1.76 1.67 1.61 1.68 1.76 1.86 1.84 1.85 1.90 1.96 2.05 2.03 2.05 2.14 2.14 2.12 1.93 1.65 1.47 1.35 1.25
1.03 0.99 0.99 1.01 1.03 1.05 1.07 1.07 1.09 1.15 1.18 1.35 1.39 1.49 1.57 1.55 1.46 1.50 1.51 1.44 1.62 1.59 1.46 1.42 1.43 1.51 1.52 1.58 1.51 1.57 1.71 1.79 1.88 1.99 2.07 2.24 2.26 2.34 2.16 1.88 1.70 1.55 1.39
0.98 1.03 1.05 1.05 0.99 1.03 1.04 1.02 1.06 1.16 1.27 1.40 1.44 1.55 1.59 1.45 1.50 1.54 1.55 1.53 1.58 1.54 1.47 1.41 1.31 1.30 1.27 1.30 1.35 1.41 1.53 1.65 1.82 1.97 2.04 2.13 2.20 2.18 2.12 1.98 1.85 1.66 1.42
1.02 1.00 1.08 1.16 1.08 1.14 1.17 1.16 1.19 1.26 1.36 1.43 1.55 1.59 1.59 1.64 1.57 1.46 1.49 1.44 1.49 1.53 1.56 1.56 1.31 1.15 1.21 1.20 1.33 1.31 1.27 1.31 1.41 1.57 1.69 1.82 2.01 2.11 2.19 2.11 2.08 1.96 1.69
1.01 1.05 1.22 1.36 1.27 1.28 1.29 1.32 1.38 1.45 1.49 1.59 1.64 1.57 1.58 1.63 1.56 1.32 1.25 1.17 1.26 1.38 1.47 1.52 1.50 1.40 1.36 1.37 1.42 1.39 1.29 1.27 1.35 1.38 1.46 1.65 1.97 2.21 2.25 2.22 2.25 2.14 1.87
1.08 1.19 1.38 1.53 1.59 1.57 1.53 1.62 1.67 1.70 1.75 1.82 1.89 1.86 1.77 1.74 1.55 1.23 1.12 1.09 1.23 1.30 1.34 1.34 1.32 1.22 1.21 1.13 1.16 1.22 1.24 1.23 1.23 1.27 1.30 1.41 1.63 1.97 2.16 2.20 2.28 2.17 1.97
1.23 1.26 1.34 1.51 1.61 1.65 1.65 1.81 1.95 2.00 2.00 2.03 1.94 1.81 1.72 1.70 1.61 1.30 1.13 1.11 1.25 1.32 1.40 1.38 1.35 1.28 1.22 1.08 1.05 1.12 1.11 1.13 1.18 1.18 1.15 1.14 1.24 1.53 1.84 1.85 1.90 2.02 1.81
1.19 1.22 1.29 1.51 1.77 1.81 1.87 1.94 2.05 2.13 2.18 2.19 2.09 1.98 1.86 1.81 1.76 1.43 1.25 1.21 1.30 1.36 1.31 1.32 1.29 1.26 1.07 0.95 0.95 1.00 1.01 1.01 1.11 1.17 1.20 1.21 1.27 1.36 1.49 1.57 1.65 1.72 1.69
1.22 1.26 1.37 1.60 1.70 1.80 1.95 2.00 2.15 2.27 2.28 2.25 2.24 2.11 2.04 1.95 1.70 1.42 1.23 1.22 1.32 1.43 1.43 1.39 1.36 1.22 0.98 0.85 0.76 0.73 0.76 0.77 0.84 0.98 1.04 1.07 1.12 1.17 1.28 1.44 1.61 1.67 1.65
1.18 1.21 1.31 1.45 1.54 1.67 1.75 1.74 1.83 1.96 1.98 2.01 2.04 2.00 2.01 2.11 1.97 1.54 1.24 1.18 1.26 1.37 1.51 1.59 1.39 1.20 1.06 0.92 0.85 0.76 0.69 0.66 0.75 0.84 0.90 0.91 0.96 1.04 1.20 1.42 1.61 1.80 1.75
1.14 1.10 1.19 1.35 1.43 1.50 1.62 1.64 1.73 1.80 1.86 1.93 1.95 1.92 1.93 2.08 2.08 1.76 1.44 1.25 1.17 1.16 1.21 1.24 1.16 1.10 0.99 0.88 0.80 0.71 0.63 0.66 0.74 0.77 0.83 0.92 1.01 1.18 1.26 1.27 1.37 1.58 1.75
1.16 1.11 1.17 1.28 1.37 1.45 1.56 1.65 1.67 1.70 1.68 1.71 1.75 1.72 1.72 1.84 1.84 1.60 1.39 1.26 1.16 1.14 1.16 1.22 1.20 1.19 1.09 0.99 0.92 0.86 0.85 0.86 0.83 0.84 0.90 0.99 1.04 1.11 1.20 1.26 1.32 1.37 1.41
1.23 1.15 1.13 1.14 1.21 1.28 1.36 1.37 1.30 1.27 1.26 1.24 1.28 1.21 1.20 1.36 1.37 1.14 1.01 1.04 1.04 1.02 1.04 1.12 1.19 1.23 1.18 1.11 1.06 1.00 1.00 0.98 0.94 0.95 0.99 1.04 1.08 1.10 1.16 1.29 1.41 1.41 1.31
1.42 1.26 1.13 1.06 1.08 1.12 1.23 1.31 1.33 1.22 1.14 1.07 1.04 0.94 0.87 1.08 1.16 1.02 0.90 0.86 0.83 0.84 0.90 0.99 1.03 1.11 1.15 1.06 0.97 0.91 0.90 0.92 0.97 1.00 1.01 1.04 1.09 1.14 1.19 1.28 1.39 1.46 1.38
1.36 1.25 1.10 1.03 1.02 1.00 1.05 1.15 1.22 1.28 1.26 1.10 0.94 0.84 0.76 0.88 0.99 0.95 0.84 0.75 0.73 0.74 0.79 0.88 0.96 1.00 1.06 1.02 0.94 0.94 0.97 1.02 1.02 1.02 1.03 1.05 1.10 1.15 1.21 1.25 1.31 1.38 1.37
1.22 1.13 1.03 0.99 1.00 0.93 0.86 0.93 1.01 1.08 1.18 1.15 0.98 0.88 0.80 0.85 0.92 0.88 0.77 0.67 0.70 0.70 0.72 0.78 0.85 0.92 0.95 0.93 0.93 0.96 0.97 1.01 0.96 0.97 1.03 1.08 1.06 1.11 1.11 1.16 1.25 1.34 1.36
0.99 0.90 0.87 0.89 0.88 0.85 0.83 0.87 0.96 1.05 1.13 1.12 1.00 0.87 0.76 0.78 0.86 0.85 0.74 0.69 0.68 0.65 0.64 0.69 0.77 0.82 0.87 0.90 0.97 1.00 0.98 1.02 1.04 0.99 1.02 1.09 1.04 1.04 1.04 1.06 1.17 1.22 1.23
0.83 0.72 0.62 0.65 0.74 0.79 0.83 0.91 1.02 1.09 1.12 1.04 0.88 0.73 0.64 0.60 0.71 0.73 0.75 0.76 0.72 0.71 0.70 0.69 0.73 0.78 0.81 0.88 0.96 1.01 1.03 1.05 1.07 1.01 1.00 1.08 1.07 1.08 1.11 1.08 1.10 1.21 1.22
0.81 0.67 0.55 0.55 0.62 0.66 0.77 0.90 0.98 0.98 0.93 0.87 0.79 0.69 0.64 0.60 0.66 0.69 0.73 0.73 0.69 0.69 0.65 0.66 0.69 0.76 0.80 0.85 0.91 0.97 0.99 0.99 1.02 1.05 1.04 1.07 1.10 1.08 1.11 1.10 1.08 1.19 1.28
0.74 0.57 0.45 0.43 0.47 0.52 0.64 0.81 0.87 0.81 0.73 0.71 0.70 0.68 0.67 0.68 0.66 0.68 0.71 0.69 0.67 0.64 0.61 0.65 0.69 0.73 0.80 0.81 0.80 0.86 0.91 0.91 0.90 0.96 1.05 1.07 1.09 1.12 1.13 1.16 1.16 1.19 1.28
0.61 0.47 0.36 0.32 0.36 0.45 0.59 0.76 0.76 0.68 0.64 0.66 0.67 0.69 0.69 0.68 0.66 0.67 0.68 0.69 0.69 0.67 0.65 0.66 0.66 0.64 0.67 0.74 0.73 0.69 0.70 0.68 0.69 0.77 0.89 0.99 1.04 1.13 1.13 1.14 1.17 1.15 1.24
0.54 0.45 0.35 0.30 0.33 0.46 0.64 0.74 0.68 0.61 0.60 0.61 0.58 0.62 0.67 0.69 0.70 0.70 0.69 0.72 0.71 0.73 0.71 0.67 0.66 0.63 0.58 0.58 0.61 0.58 0.56 0.49 0.49 0.58 0.70 0.83 0.89 1.00 1.05 1.05 1.14 1.17 1.19
0.50 0.47 0.40 0.36 0.39 0.51 0.64 0.68 0.63 0.59 0.62 0.59 0.58 0.60 0.65 0.69 0.69 0.66 0.67 0.68 0.67 0.65 0.59 0.56 0.55 0.56 0.55 0.52 0.47 0.43 0.38 0.36 0.38 0.45 0.55 0.68 0.79 0.88 0.94 0.99 1.04 1.13 1.13